Ketchikan, AK

7:30 AM AKST on November 15, 2018 (GMT -0900)
Ketchikan International

Weather History for PAKT - August, 2018

Change the Weather History Date:

Wednesday, August 22, 2018

  Actual Average Record
Temperature  
Mean Temperature 58 °F -  
Max Temperature 64 °F 62 °F 77 °F (1979)
Min Temperature 55 °F 51 °F 43 °F (1976)
Degree Days  
Heating Degree Days 6    
Growing Degree Days 8 (Base 50)    
Moisture  
Dew Point 55 °F    
Average Humidity 86    
Maximum Humidity 97    
Minimum Humidity 63    
Precipitation  
Precipitation 0.23 in - - ()
Sea Level Pressure  
Sea Level Pressure 30.01 in    
Wind  
Wind Speed 3 mph (NNW)    
Max Wind Speed 12 mph    
Max Gust Speed -    
Visibility 7 miles    
Events Rain    
Averages and records for this station are not official NWS values.
T = Trace of Precipitation, MM = Missing Value Source: NWS Daily Summary

Daily Weather History Graph

Daily Weather History Graph

Search for Another Location

Airport or City:

Astronomy

Aug. 22, 2018 Rise Set
Actual Time 5:33 AM AKDT 8:04 PM AKDT
Civil Twilight 4:53 AM AKDT 8:44 PM AKDT
Nautical Twilight 4:00 AM AKDT 9:36 PM AKDT
Astronomical Twilight 2:54 AM AKDT 10:41 PM AKDT
Moon 6:29 PM AKDT (8/22) 1:33 AM AKDT (8/22)
Length of Visible Light 15h 51m
Length of Day
14h 30m
Waxing Gibbous, 88% of the Moon is Illuminated
Aug 22
Waxing Gibbous
Aug 26
Full
Sep 2
Last Quarter
Sep 9
New
Sep 16
First Quarter

Hourly Weather History & Observations

Time (AKDT) Temp. Dew Point Humidity Pressure Visibility Wind Dir Wind Speed Gust Speed Precip Events Conditions
12:23 AM 60.1 °F 57.9 °F 93% 30.03 in 2.0 mi East 3.5 mph - 0.01 in   Overcast
12:45 AM 59.0 °F 57.9 °F 96% 30.03 in 1.8 mi Calm Calm - 0.01 in Rain Light Rain
12:53 AM 59.0 °F 57.9 °F 96% 30.03 in 2.0 mi Calm Calm - 0.02 in Rain Light Rain
1:06 AM 59.0 °F 57.0 °F 93% 30.03 in 1.8 mi Calm Calm - 0.00 in Rain Light Rain
1:22 AM 59.0 °F 57.9 °F 96% 30.02 in 2.0 mi Calm Calm - 0.01 in   Overcast
1:39 AM 59.0 °F 57.0 °F 93% 30.02 in 2.0 mi Calm Calm - 0.02 in Rain Light Rain
1:51 AM 59.0 °F 57.2 °F 94% 30.02 in 2.5 mi Calm Calm - 0.02 in   Overcast
1:53 AM 59.0 °F 57.0 °F 93% 30.02 in 2.5 mi South 3.5 mph - 0.02 in   Overcast
2:05 AM 59.0 °F 57.9 °F 96% 30.01 in 1.8 mi Calm Calm - 0.01 in Rain Light Rain
2:13 AM 59.0 °F 57.9 °F 96% 30.01 in 2.0 mi Calm Calm - 0.01 in Rain Light Rain
2:31 AM 59.0 °F 57.9 °F 96% 30.01 in 1.5 mi NW 3.5 mph - 0.03 in Rain Light Rain
2:38 AM 59.0 °F 57.9 °F 96% 30.01 in 3.0 mi Calm Calm - 0.03 in Rain Light Rain
2:49 AM 59.0 °F 57.2 °F 94% 30.00 in 8.0 mi East 3.5 mph - 0.03 in   Overcast
2:50 AM 60.8 °F 57.2 °F 88% 30.00 in 8.0 mi Calm Calm - 0.03 in   Overcast
2:53 AM 60.1 °F 57.9 °F 93% 30.00 in 7.0 mi Calm Calm - 0.03 in   Overcast
3:01 AM 59.0 °F 57.0 °F 93% 29.99 in 10.0 mi Calm Calm - N/A   Overcast
3:20 AM 59.0 °F 57.0 °F 93% 30.00 in 10.0 mi Calm Calm - N/A   Overcast
3:35 AM 59.0 °F 57.0 °F 93% 30.00 in 10.0 mi Calm Calm - N/A   Overcast
3:53 AM 59.0 °F 57.0 °F 93% 30.00 in 10.0 mi Calm Calm - N/A   Overcast
4:03 AM 59.0 °F 57.0 °F 93% 30.00 in 6.0 mi Calm Calm - 0.01 in Rain Light Rain
4:15 AM 59.0 °F 57.0 °F 93% 30.00 in 2.5 mi SW 3.5 mph - 0.03 in Rain Light Rain
4:26 AM 59.0 °F 57.0 °F 93% 30.00 in 3.0 mi Calm Calm - 0.04 in Rain Light Rain
4:53 AM 59.0 °F 57.0 °F 93% 30.00 in 4.0 mi Calm Calm - 0.06 in Rain Light Rain
5:17 AM 57.9 °F 57.0 °F 97% 29.99 in 10.0 mi Calm Calm - 0.00 in   Overcast
5:26 AM 57.9 °F 55.9 °F 93% 29.99 in 10.0 mi Calm Calm - 0.00 in   Overcast
5:53 AM 57.9 °F 57.0 °F 97% 29.99 in 7.0 mi WNW 4.6 mph - 0.01 in Rain Light Rain
6:53 AM 57.9 °F 55.0 °F 90% 30.01 in 10.0 mi North 11.5 mph - 0.08 in   Overcast
7:51 AM 59.0 °F 53.6 °F 82% 30.01 in 10.0 mi NNW 6.9 mph - N/A   Overcast
7:53 AM 59.0 °F 53.6 °F 82% 30.01 in 10.0 mi NNW 8.1 mph - N/A   Overcast
8:53 AM 60.8 °F 53.6 °F 77% 30.01 in 10.0 mi NNW 9.2 mph - N/A   Overcast
9:53 AM 60.8 °F 53.6 °F 77% 30.01 in 10.0 mi North 10.4 mph - N/A   Overcast
10:53 AM 60.8 °F 51.8 °F 72% 30.02 in 10.0 mi NNW 9.2 mph - N/A   Overcast
11:53 AM 62.6 °F 53.6 °F 72% 30.03 in 10.0 mi North 6.9 mph - N/A   Overcast
12:53 PM 62.6 °F 51.8 °F 68% 30.03 in 10.0 mi NNW 8.1 mph - N/A   Overcast
1:53 PM 62.6 °F 50.0 °F 63% 30.03 in 10.0 mi NW 6.9 mph - N/A   Overcast
2:53 PM 62.6 °F 50.0 °F 63% 30.02 in 10.0 mi North 4.6 mph - N/A   Overcast
3:53 PM 62.6 °F 50.0 °F 63% 30.02 in 10.0 mi North 8.1 mph - N/A   Overcast
4:53 PM 62.6 °F 51.8 °F 68% 30.03 in 10.0 mi NNW 8.1 mph - N/A   Overcast
5:53 PM 62.6 °F 51.8 °F 68% 30.02 in 10.0 mi North 8.1 mph - N/A   Overcast
6:53 PM 60.8 °F 51.8 °F 72% 30.02 in 10.0 mi NW 5.8 mph - N/A   Overcast
7:53 PM 57.9 °F 53.1 °F 84% 30.03 in 10.0 mi Variable 4.6 mph - 0.01 in   Overcast
8:53 PM 55.9 °F 53.1 °F 90% 30.04 in 10.0 mi West 4.6 mph - 0.00 in   Mostly Cloudy
9:53 PM 55.9 °F 53.1 °F 90% 30.04 in 10.0 mi West 3.5 mph - N/A   Overcast
10:53 PM 57.9 °F 53.1 °F 84% 30.04 in 10.0 mi NNW 8.1 mph - N/A   Overcast
11:53 PM 57.0 °F 52.0 °F 83% 30.04 in 10.0 mi NNW 6.9 mph - N/A   Mostly Cloudy